Regional Weather Roundup
Issued by NWS

Home | Current Version | Previous Version | Graphics & Text | Print | Product List | Glossary Off
Versions: 1 2 3 4 5 6 7 8 9 10 11 12 13 14 15 16 17 18 19 20 21 22 23 24 25 26 27 28 29 30 31 32 33 34 35 36 37 38 39 40 41 42 43 44 45 46 47 48 49 50

000
ASUS43 KMKX 261000
RWRWI

WISCONSIN REGIONAL WEATHER ROUNDUP
NATIONAL WEATHER SERVICE MILWAUKEE/SULLIVAN WI
400 AM CST SUN FEB 26 2017

NOTE: "FAIR" INDICATES FEW OR NO CLOUDS BELOW 12,000 FEET WITH NO
SIGNIFICANT WEATHER AND/OR OBSTRUCTIONS TO VISIBILITY.

WIZ001-002-006>008-014>016-023>028-261100-
NORTHWEST WISCONSIN

CITY           SKY/WX    TMP DP  RH WIND       PRES   REMARKS
SUPERIOR ARPT  LGT SNOW  26  25  95 SW6       29.69S WCI  19
ASHLAND        CLOUDY    25  18  74 S14       29.69F WCI  13
HAYWARD        FLURRIES  23  15  71 S10       29.70F WCI  12
SIREN          FLURRIES  24  19  81 SW9       29.71F WCI  15
CUMBERLAND     CLOUDY    23  16  74 S9        29.71F WCI  13
RICE LAKE      CLOUDY    22  16  77 S7        29.75F WCI  13
CHETEK         CLOUDY    22  16  78 S7        29.75F WCI  13
LADYSMITH      CLOUDY    21  16  81 S9        29.76F WCI  11
EAU CLAIRE     NOT AVBL
MENOMONIE      CLOUDY    24  17  73 S8        29.77F WCI  15
NEW RICHMOND   CLOUDY    23  16  73 S9        29.74F WCI  13
OSCEOLA        CLOUDY    26  18  72 S8        29.76F WCI  17
$$

WIZ003>005-009-010-017-018-261100-
NORTH CENTRAL WISCONSIN

CITY           SKY/WX    TMP DP  RH WIND       PRES   REMARKS
MANITOWISH WTR CLOUDY    18  13  81 SW10      29.70S WCI   6
ARBOR VITAE    CLEAR     19  14  79 S7          N/A  WCI  10
WOODRUFF       CLEAR     19  14  79 S7          N/A  WCI  10
RHINELANDER    MOCLDY    17  11  77 S8        29.73F WCI   7
EAGLE RIVER    CLEAR     17  11  75 SW7       29.72F WCI   8
LAND O LAKES   CLOUDY    18  13  82 S6        29.72F WCI   9
PHILLIPS       FLURRIES  18  15  85 S8        29.71F WCI   8
TOMAHAWK       MOCLDY    17  13  84 S3        29.76F
MEDFORD        CLOUDY    19  14  82 S8        29.76F WCI   8
MERRILL        NOT AVBL
$$

WIZ029-030-035-036-043>047-261100-
CENTRAL WISCONSIN

CITY           SKY/WX    TMP DP  RH WIND       PRES   REMARKS
WAUSAU         LGT SNOW  19  15  84 S12       29.78F FOG     WCI   7
MOSINEE        LGT SNOW  19  18  93 S10       29.82F WCI   8
MARSHFIELD     CLOUDY    20  13  74 S12       29.78F WCI   8
STEVENS POINT  CLOUDY    19  14  81 S7        29.84F WCI   9
WAUPACA        CLOUDY    22  16  79 S7        29.89F WCI  13
WAUTOMA        FLURRIES  20  15  81 S5        29.89F WCI  13
WISC RAPIDS    CLOUDY    21  15  78 S8        29.85F WCI  11
CAMP DOUGLAS   NOT AVBL
$$

WIZ011>013-019>022-031-037>040-048>050-261100-
NORTHEAST WISCONSIN

CITY           SKY/WX    TMP DP  RH WIND       PRES   REMARKS
ANTIGO         CLOUDY    18  13  82 SW12      29.79F WCI   5
SHAWANO        CLOUDY    20  15  81 CALM      29.87F
OCONTO         CLOUDY    19  12  73 SW8       29.89F WCI   9
STURGEON BAY   CLOUDY    21  14  74 SW15G23   29.89F WCI   8
GREEN BAY      LGT SNOW  21  18  88 SW9       29.90F FOG     WCI  11
MANITOWOC      NOT AVBL
APPLETON       CLOUDY    21  18  86 S7        29.88F WCI  13
CLINTONVILLE   CLOUDY    19  16  86 S7        29.88F WCI  10
OSHKOSH        CLOUDY    20  13  74 S8        29.90F WCI  10
$$

WIZ032>034-041-042-053>061-261100-
SOUTHWEST WISCONSIN

CITY           SKY/WX    TMP DP  RH WIND       PRES   REMARKS
LA CROSSE      MOCLDY    28  19  69 S12       29.82F WCI  18
SPARTA         CLOUDY    25  18  75 SW3       29.85F
VIROQUA        CLOUDY    23  18  83 S8        29.83F WCI  14
BOSCOBEL       CLOUDY    28  18  66 S6        29.88F WCI  22
PRAIRIE DU CHI CLOUDY    29  17  60 SE5       29.87F WCI  24
PLATTEVILLE    CLOUDY    26  21  81 S9        29.90F WCI  17
$$

WIZ056-057-062-063-064-067-068-261100-
SOUTH CENTRAL WISCONSIN

CITY           SKY/WX    TMP DP  RH WIND       PRES   REMARKS
REEDSBURG      CLOUDY    23  17  78 S9        29.89F WCI  13
BARABOO/DELLS  CLOUDY    23  17  77 S8        29.89S WCI  14
LONE ROCK      NOT AVBL
MINERAL POINT  PTCLDY    28  21  74 S5        29.88F WCI  23
MADISON        CLOUDY    23  17  78 S6        29.92F WCI  16
MIDDLETON      CLOUDY    24  19  81 CALM      29.92F
WATERTOWN      CLOUDY    20  16  84 SE3       29.94F
MONROE         CLOUDY    25  19  80 S15       29.92F WCI  12
JANESVILLE     CLOUDY    27  19  74 S7        29.95F WCI  19
$$

WIZ051-052-058>065-066-070>072-261100-
SOUTHEAST WISCONSIN

CITY           SKY/WX    TMP DP  RH WIND       PRES   REMARKS
MILWAUKEE      CLOUDY    24  15  68 S6        29.97F WCI  17
WAUKESHA       CLOUDY    19  14  79 S3        29.96F
MILWAUKEE/TIMM CLOUDY    21  14  73 SW6       29.98F WCI  14
RACINE         CLOUDY    23  16  74 SW7       30.01S WCI  15
KENOSHA        CLOUDY    24  17  74 SW7       30.00S WCI  16
FOND DU LAC    CLOUDY    20  12  71 S6        29.92F WCI  12
SHEBOYGAN      PTCLDY    20  12  71 SW9       29.94S WCI   9
WEST BEND      MOCLDY    21  18  86 SW3       29.94F
JUNEAU         CLOUDY    20  15  82 S5        29.93F WCI  14
$$

LSZ147-162-261100-
LAKE SUPERIOR

STATION/POSITION TIME  TEMP    WIND        PRES    WAVE
                       AIR SEA DIR/SP/G            HT/PER
                 (UTC) (F)     (DEG/KT/KT) (MB)    (FT/S)
DEVILS ISLAND    0900   26     190/  8/ 11 1006.1F
PORT WING        0940   26     200/  8/ 12 1005.4F
SAXON HARBOR     0940   26     200/  9/ 15 1005.8F
$$

LMZ867-665-643>646-261100-
LAKE MICHIGAN

STATION/POSITION TIME  TEMP    WIND        PRES    WAVE
                       AIR SEA DIR/SP/G            HT/PER
                 (UTC) (F)     (DEG/KT/KT) (MB)    (FT/S)
NORTHPORT PIER   0940   22        CALM     1011.5S
SISTER BAY       0905   21        CALM       N/A
ALGOMA LAKESHORE 0856          230/  8/ 15   N/A
KEWAUNEE LAKESHO 0930   22     260/  8/ 13 1012.6S
SHEBOYGAN LAKESH 0900   22     210/ 10/ 11 1015.3R
PORT WASHINGTON  0940   22     230/  5/  9 1015.9S
MILWAUKEE LAKESH 0930   24     230/  8/  9   N/A
KENOSHA   LAKESH 0900   24     220/  6/  8 1016.3
$$

TC  - TEMPERATURE IN CELSIUS
VSB - VISIBILITY IN STATUTE MILES
WCI - WIND CHILL INDEX
HX  - HEAT INDEX





USA.gov is the U.S. government's official web portal to all federal, state and local government web resources and services.